Stations météo

réclame
Mon MeteoGroup
Cap Cepet, France (7661): Température de l'air & dewpoint: 14.07.2019 03:00:00 - 20.07.2019 03:00:00 (CEST)Cap Cepet, France (7661): Vitesse du vent & gusts: 14.07.2019 03:00:00 - 20.07.2019 03:00:00 (CEST)Cap Cepet, France (7661): Direction du vent: 14.07.2019 03:00:00 - 20.07.2019 03:00:00 (CEST)Cap Cepet, France (7661): reduced air pressure: 14.07.2019 03:00:00 - 20.07.2019 03:00:00 (CEST)Cap Cepet, France (7661): visibility: 14.07.2019 03:00:00 - 20.07.2019 03:00:00 (CEST)Cap Cepet, France (7661): Quantités de précipitations: 14.07.2019 03:00:00 - 20.07.2019 03:00:00 (CEST)
Date & Time tt [°C] td [°C] ff [km/h] ff [knt] fx [km/h] fx [knt] dd ppp [hPa] vv [km] rr [mm]
20.07.2019 03:00:00 21,3 20,6 13 7 18 10 E 1016,7 - 0,0
20.07.2019 02:00:00 21,6 20,8 12 7 16 9 E 1016,8 - 0,0
20.07.2019 01:00:00 21,8 20,8 13 7 16 9 E 1016,7 - 0,0
20.07.2019 00:00:00 22,4 21,2 12 7 16 8 E 1016,5 - 0,0
19.07.2019 23:00:00 22,4 21,0 3 2 8 4 E 1016,7 - 0,0
19.07.2019 22:00:00 22,4 20,9 6 4 8 5 WSW 1016,6 - 0,0
19.07.2019 21:00:00 23,0 20,7 5 3 13 7 WSW 1016,1 - 0,0
19.07.2019 20:00:00 24,1 20,8 10 5 19 10 WSW 1015,8 25 0,0
19.07.2019 19:00:00 25,0 20,9 10 6 23 12 SW 1016,0 - 0,0
19.07.2019 18:00:00 26,2 21,0 14 8 24 13 SW 1016,1 - 0,0
19.07.2019 17:00:00 26,9 21,2 16 9 26 14 SW 1016,1 - 0,0
19.07.2019 16:00:00 27,3 21,1 16 9 25 13 WSW 1016,2 - 0,0
19.07.2019 15:00:00 27,3 20,4 11 6 24 13 SW 1016,3 - 0,0
19.07.2019 14:00:00 27,2 20,3 15 8 25 13 SW 1016,5 25 0,0
19.07.2019 13:00:00 27,9 21,0 16 9 25 13 SW 1016,4 - 0,0
19.07.2019 12:00:00 27,3 20,4 14 7 25 13 S 1016,2 - 0,0
19.07.2019 11:00:00 26,1 19,0 12 6 19 10 SW 1016,2 - 0,0
19.07.2019 10:00:00 26,0 18,2 10 6 18 10 E 1015,9 - 0,0
19.07.2019 09:00:00 24,3 19,1 9 5 22 12 E 1015,8 - 0,0
19.07.2019 08:00:00 22,5 18,7 13 7 29 15 E 1015,3 - 0,0
19.07.2019 07:00:00 20,0 17,6 23 12 35 19 E 1014,7 - 0,0
19.07.2019 06:00:00 19,8 17,8 21 11 29 16 E 1014,5 - 0,0
19.07.2019 05:00:00 19,9 17,7 21 12 28 15 E 1014,4 - 0,0
19.07.2019 04:00:00 20,1 17,7 18 10 23 12 E 1014,3 - 0,0
19.07.2019 03:00:00 20,6 18,7 16 9 20 11 E 1014,3 - 0,0
19.07.2019 02:00:00 21,8 20,3 14 8 16 9 E 1014,1 - 0,0
19.07.2019 01:00:00 22,4 19,8 12 7 18 10 E 1014,0 - 0,0
19.07.2019 00:00:00 22,5 17,0 5 3 15 8 N 1013,8 - 0,0
18.07.2019 23:00:00 23,1 15,4 11 6 22 12 NW 1013,6 - 0,0
18.07.2019 22:00:00 24,0 14,1 16 8 21 12 NW 1013,1 - 0,0
18.07.2019 21:00:00 25,1 14,5 12 7 40 22 NW 1012,6 - 0,0
18.07.2019 20:00:00 26,4 14,8 31 17 55 30 NW 1011,8 - 0,0
18.07.2019 19:00:00 27,2 15,2 42 23 66 36 NW 1011,1 - 0,0
18.07.2019 18:00:00 26,5 15,5 48 26 79 42 NW 1010,9 - 0,0
18.07.2019 17:00:00 27,7 15,4 50 27 76 41 NW 1010,7 17 0,0
18.07.2019 16:00:00 28,5 15,1 46 25 69 37 NW 1010,7 - 0,0
18.07.2019 15:00:00 30,3 14,4 41 22 61 33 NW 1010,8 - 0,0
18.07.2019 14:00:00 30,6 12,9 32 18 54 29 NW 1010,9 20 0,0
18.07.2019 13:00:00 31,2 13,0 18 10 30 16 NW 1011,4 - 0,0
18.07.2019 12:00:00 26,9 17,1 10 6 27 15 SW 1011,9 - 0,0
18.07.2019 11:00:00 26,3 20,2 16 9 23 12 WSW 1012,0 20 0,0
18.07.2019 10:00:00 25,0 19,1 11 6 16 9 SW 1012,1 - 0,0
18.07.2019 09:00:00 25,0 17,5 3 1 6 4 E 1011,9 - 0,0
18.07.2019 08:00:00 23,0 15,8 4 2 8 4 E 1011,4 - 0,0
18.07.2019 07:00:00 21,8 14,2 6 4 13 7 ENE 1011,0 - 0,0
18.07.2019 06:00:00 22,3 12,8 8 5 11 6 E 1010,8 - 0,0
18.07.2019 05:00:00 21,9 12,7 8 4 16 9 E 1010,4 - 0,0
18.07.2019 04:00:00 22,1 15,0 5 3 9 5 E 1010,1 - 0,0
18.07.2019 03:00:00 22,4 15,3 0 0 9 5 N 1010,4 - 0,0
18.07.2019 02:00:00 21,8 17,0 6 3 27 15 N 1010,9 - 0,0
18.07.2019 01:00:00 22,5 15,6 23 13 39 21 NW 1011,1 - 0,0
18.07.2019 00:00:00 22,9 15,2 29 16 38 21 NW 1011,5 - 0,0
17.07.2019 23:00:00 22,7 15,3 31 17 45 24 NW 1012,1 - 0,0
17.07.2019 22:00:00 23,0 15,3 29 16 49 26 NW 1011,8 - 0,0
17.07.2019 21:00:00 24,7 12,3 39 21 51 28 NW 1011,2 - 0,0
17.07.2019 20:00:00 24,7 12,9 32 17 45 24 NW 1011,1 - 0,0
17.07.2019 19:00:00 26,0 16,0 22 12 30 16 NW 1011,3 - 0,0
17.07.2019 18:00:00 27,8 15,5 16 9 29 15 WNW 1011,5 - 0,0
17.07.2019 17:00:00 27,7 16,9 19 10 29 16 WSW 1012,0 - 0,0
17.07.2019 16:00:00 25,9 17,8 21 12 30 16 WSW 1012,4 - 0,0
17.07.2019 15:00:00 26,7 18,3 22 12 29 16 SW 1012,6 - 0,0
17.07.2019 14:00:00 25,9 20,5 15 8 24 13 WSW 1013,0 - 0,0
17.07.2019 13:00:00 26,8 19,7 17 9 25 13 WSW 1013,1 - 0,0
17.07.2019 12:00:00 26,5 18,9 10 5 19 10 WSW 1013,3 - 0,0
17.07.2019 11:00:00 25,1 17,3 6 3 15 8 SW 1013,4 20 0,0
17.07.2019 10:00:00 25,9 17,8 5 3 11 6 WSW 1013,8 - 0,0
17.07.2019 09:00:00 23,5 15,8 4 2 11 6 SE 1013,8 - 0,0
17.07.2019 08:00:00 21,6 17,4 4 2 10 5 NE 1013,5 20 0,0
17.07.2019 07:00:00 19,9 15,9 8 4 11 6 NNW 1013,4 - 0,0
17.07.2019 06:00:00 19,6 14,4 9 5 11 6 NNW 1013,4 - 0,0
17.07.2019 05:00:00 20,1 13,5 9 5 16 9 NW 1013,2 - 0,0
17.07.2019 04:00:00 20,3 14,6 13 7 23 13 NW 1013,4 - 0,0
17.07.2019 03:00:00 21,2 12,3 20 11 31 17 NW 1013,8 - 0,0
17.07.2019 02:00:00 21,6 11,9 26 14 37 20 NW 1014,2 - 0,0
17.07.2019 01:00:00 21,4 12,5 29 16 40 21 NW 1014,6 - 0,0
17.07.2019 00:00:00 21,2 13,6 27 14 41 22 NW 1014,8 - 0,0
16.07.2019 23:00:00 21,0 15,3 33 18 43 23 NW 1014,6 - 0,0
16.07.2019 22:00:00 20,9 15,7 26 14 38 20 NW 1014,6 - 0,0
16.07.2019 21:00:00 22,1 14,2 20 11 27 15 NW 1014,3 - 0,0
16.07.2019 20:00:00 26,0 13,1 18 10 27 15 NW 1014,1 - 0,0
16.07.2019 19:00:00 28,3 13,4 19 11 26 14 NW 1014,0 - 0,0
16.07.2019 18:00:00 26,5 14,9 18 10 31 17 WSW 1014,7 - 0,0
16.07.2019 17:00:00 27,1 13,1 23 13 36 19 WSW 1015,1 25 0,0
16.07.2019 16:00:00 28,1 13,6 26 14 37 20 WSW 1015,4 - 0,0
16.07.2019 15:00:00 27,9 11,0 24 13 31 17 WSW 1015,4 - 0,0
16.07.2019 14:00:00 28,0 12,4 20 11 29 16 WSW 1015,5 25 0,0
16.07.2019 13:00:00 28,4 11,5 15 8 24 13 WSW 1015,2 - 0,0
16.07.2019 12:00:00 27,0 11,9 13 7 21 11 SW 1015,4 - 0,0
16.07.2019 11:00:00 25,3 12,8 9 5 14 7 WSW 1015,3 - 0,0
16.07.2019 10:00:00 24,2 15,9 4 2 9 5 WSW 1015,2 - 0,0
16.07.2019 09:00:00 22,6 16,4 5 3 15 8 NNW 1014,9 - 0,0
16.07.2019 08:00:00 20,0 15,4 13 7 16 8 NNW 1014,7 - 0,0
16.07.2019 07:00:00 18,2 14,7 9 5 12 7 NNW 1014,3 - 0,0
16.07.2019 06:00:00 18,5 14,8 3 2 16 8 E 1013,8 - 0,0
16.07.2019 05:00:00 19,0 14,7 7 4 18 10 N 1013,4 - 0,0
16.07.2019 04:00:00 19,0 15,1 16 9 21 11 NW 1013,6 - 0,0
16.07.2019 03:00:00 18,9 15,8 19 10 24 13 NW 1013,7 - 0,0
16.07.2019 02:00:00 19,2 15,5 18 10 25 14 NW 1013,5 - 0,0
16.07.2019 01:00:00 19,5 15,6 21 11 26 14 NW 1013,1 - 0,0
16.07.2019 00:00:00 19,9 16,3 22 12 26 14 NW 1013,0 - 0,0
15.07.2019 23:00:00 20,3 15,7 11 6 14 7 NW 1013,1 - 0,0
15.07.2019 22:00:00 20,4 15,8 8 4 12 6 WSW 1012,3 - 0,0
15.07.2019 21:00:00 21,3 16,0 9 5 21 11 SW 1011,2 - 0,0
15.07.2019 20:00:00 22,4 16,0 15 8 26 14 SW 1010,5 25 0,0
15.07.2019 19:00:00 22,5 15,1 9 5 19 11 SW 1010,0 - 0,0
15.07.2019 18:00:00 22,8 14,9 13 7 29 16 SW 1009,7 - 0,0
15.07.2019 17:00:00 22,7 15,8 21 11 39 21 ESE 1009,2 - 0,0
15.07.2019 16:00:00 19,3 17,4 22 12 43 23 ESE 1008,8 - 1,0
15.07.2019 15:00:00 23,0 14,6 26 14 59 32 E 1007,5 - 0,0
15.07.2019 14:00:00 27,8 11,8 35 19 53 29 NW 1005,6 - 0,0
15.07.2019 13:00:00 26,8 11,3 32 17 49 26 NW 1005,4 - 0,0
15.07.2019 12:00:00 25,7 12,9 16 9 23 12 WSW 1005,6 - 0,0
15.07.2019 11:00:00 26,8 12,8 6 3 17 9 WNW 1005,6 - 0,0
15.07.2019 10:00:00 24,5 13,7 4 2 22 12 ESE 1005,9 - 0,0
15.07.2019 09:00:00 22,4 12,6 13 7 19 11 NW 1006,0 - 0,0
15.07.2019 08:00:00 21,5 13,1 13 7 20 11 NW 1005,9 10 0,0
15.07.2019 07:00:00 20,5 13,5 13 7 27 15 NW 1006,0 - 0,0
15.07.2019 06:00:00 20,0 16,0 6 3 17 9 WNW 1006,1 - 0,0
15.07.2019 05:00:00 20,1 18,2 7 4 12 6 E 1006,1 - 0,0
15.07.2019 04:00:00 20,2 18,5 9 5 14 8 N 1006,4 - 0,0
15.07.2019 03:00:00 20,9 19,0 12 6 16 8 E 1006,6 - 0,0
15.07.2019 02:00:00 21,8 19,2 3 2 12 7 SSE 1007,2 - 0,0
15.07.2019 01:00:00 22,4 18,2 12 7 16 8 NW 1007,7 - 0,0
15.07.2019 00:00:00 22,5 18,1 16 8 26 14 NW 1008,1 - 0,0
14.07.2019 23:00:00 23,0 18,1 16 9 25 13 NW 1008,4 - 0,0
14.07.2019 22:00:00 23,6 19,1 3 2 6 4 E 1008,0 - 0,0
14.07.2019 21:00:00 24,8 19,2 0 0 8 5 N 1008,0 - 0,0
14.07.2019 20:00:00 24,8 19,0 5 3 14 8 SW 1008,0 - 0,0
14.07.2019 19:00:00 26,1 19,0 4 2 11 6 E 1008,0 - 0,0
14.07.2019 18:00:00 27,1 19,4 5 3 27 15 WSW 1007,9 - 0,0
14.07.2019 17:00:00 27,6 19,4 14 8 50 27 WSW 1007,9 - 0,0
14.07.2019 16:00:00 27,4 21,0 35 19 56 31 E 1007,4 - 0,0
14.07.2019 15:00:00 27,7 21,5 36 19 61 33 E 1007,7 - 0,0
14.07.2019 14:00:00 28,3 20,6 34 18 53 29 E 1007,9 - 0,0
14.07.2019 13:00:00 27,6 20,2 29 16 50 27 E 1008,3 - 0,0
14.07.2019 12:00:00 30,0 19,4 23 12 41 22 E 1008,6 - 0,0
14.07.2019 11:00:00 28,8 20,8 15 8 27 14 E 1009,3 - 0,0
14.07.2019 10:00:00 28,2 16,1 15 8 21 12 E 1009,4 - 0,0
14.07.2019 09:00:00 25,3 12,2 11 6 17 9 ENE 1009,7 - 0,0
14.07.2019 08:00:00 23,9 11,2 10 5 18 10 E 1009,7 - 0,0
14.07.2019 07:00:00 22,9 11,3 3 2 11 6 E 1009,4 - 0,0
14.07.2019 06:00:00 22,3 10,1 4 2 11 6 NE 1009,3 - 0,0
14.07.2019 05:00:00 22,3 10,1 9 5 12 6 NNW 1009,4 - 0,0
14.07.2019 04:00:00 23,0 10,1 3 2 27 14 E 1009,4 - 0,0
14.07.2019 03:00:00 22,5 9,6 23 12 29 16 E 1009,5 - 0,0

tt = Température de l'air
td = dewpoint
ff = Vitesse du vent
fx = gusts
dd = Direction du vent
ppp = reduced air pressure
vv = visibility
rr = Quantités de précipitations

stations d'obs. à proximité